Tracking 17886 objects as of 9-December-2016
HD Live streaming from Space Station
objects crossing your sky now

OXP 1

Track OXP 1 now!
10-day predictions
OXP 1 is classified as:


NORAD ID: 22489
Int'l Code: 1993-009A
Perigee: 720.4 km
Apogee: 779.0 km
Inclination: 25.0 °
Period: 99.7 minutes
Semi major axis: 7120 km
RCS: 1.9581 m2 (large)
Launch date: February 9, 1993
Source: United States (US)
Launch site: AIR FORCE EASTERN TEST RANGE (AFETR)
Your satellite tracking list
Your tracking list is empty





NASA's NSSDC Master Catalog

Two Line Element Set (TLE):
1 22489U 93009A   16344.47608748  .00000258  00000-0  20764-4 0  9996
2 22489  24.9660  37.5707 0041114 132.6788 227.7193 14.44830038258066
Source of the keplerian elements: AFSPC